AALTO-1 (42775 NORAD) Tracking and Keplerian Element Data

This shows tracking and keplerian element data for the satellite.

Feedback or suggestion? Click here.




ElementValue
Catalog42775
NameAALTO-1
Epoch Orbit23643
Epoch Day268.56076772
Epoch Year2021
RAAN311.2228
Inclination97.2373
Eccentricity0.0013517
Argument of Perigee174.6685
Mean Anonmoly185.4699
Mean Motion15.22981134
Decay Rate2.375E-05
L11 42775U 17036L 21268.56076772 .00002375 00000-0 10373-3 0 9995
L22 42775 97.2373 311.2228 0013517 174.6685 185.4699 15.22981134236437

Live tracking and technical data element details for AALTO-1 (NORAD 42775). AALTO-1 can be tracked NOW for your location showing map with azimuth and elevation plus other details from your city location.

Track the satellite on the map from your city or location and see movement details for azimuth, elevation, latitude, longitude, range, height, and movement on the map or in text.







IsCatalogInMostPopularTable: catalog: 42775, numindb: 541
Update: records affected: 1



GetName: 42775 AALTO-1

Hit Count: updated at: Mon, 27 Sep 2021 01:59:40 GMT